When you browse on this site, cookies collect data to enhance your experience and personalize the content and advertising you see.
Visit our Privacy Policy to learn more. By continuing to use the site, you agree to this use of cookies and data.
  • en France
  • Liste des pays
  • À 7 jours
  • Température de l'eau
  • Carte météo
  • Widgets météo
  • user-avatar
    Se connecter

    Météo par heure à Orsha

    Ce jour, 22 Janvier, Mercredi

    Heure Température Précipitation Vent Pression Humidité
    00:00 +2°C° 0 mm 6 m/s 743 mmHg 87%
    01:00 +1°C° 0 mm 6 m/s 743 mmHg 85%
    02:00 +1°C° 0 mm 6 m/s 742 mmHg 84%
    03:00 +1°C° 0.2 mm 6 m/s 741 mmHg 87%
    04:00 +1°C° 0.2 mm 6 m/s 740 mmHg 91%
    05:00 0°C° 0.2 mm 5 m/s 739 mmHg 94%
    06:00 0°C° 1.1 mm 5 m/s 739 mmHg 94%
    07:00 0°C° 1.1 mm 5 m/s 738 mmHg 94%
    08:00 0°C° 1.1 mm 5 m/s 737 mmHg 94%
    09:00 0°C° 0.2 mm 5 m/s 737 mmHg 89%
    10:00 0°C° 0.2 mm 5 m/s 737 mmHg 84%
    11:00 +1°C° 0.2 mm 5 m/s 736 mmHg 79%
    12:00 -1°C° 0.5 mm 6 m/s 736 mmHg 82%
    13:00 -1°C° 0.5 mm 7 m/s 736 mmHg 86%
    14:00 -2°C° 0.5 mm 8 m/s 736 mmHg 89%
    15:00 -2°C° 0.2 mm 7 m/s 736 mmHg 84%
    16:00 -3°C° 0.2 mm 7 m/s 737 mmHg 79%
    17:00 -3°C° 0.2 mm 7 m/s 737 mmHg 74%
    18:00 -3°C° 0 mm 7 m/s 738 mmHg 73%
    19:00 -4°C° 0 mm 7 m/s 739 mmHg 73%
    20:00 -4°C° 0 mm 6 m/s 739 mmHg 73%
    21:00 -4°C° 0 mm 7 m/s 740 mmHg 74%
    22:00 -4°C° 0 mm 7 m/s 740 mmHg 76%
    23:00 -4°C° 0 mm 7 m/s 740 mmHg 77%

    Demain, 23 Janvier, Jeudi

    Heure Température Précipitation Vent Pression Humidité
    00:00 -4°C° 0 mm 7 m/s 741 mmHg 78%
    01:00 -5°C° 0 mm 8 m/s 742 mmHg 79%
    02:00 -5°C° 0 mm 8 m/s 742 mmHg 79%
    03:00 -6°C° 0 mm 8 m/s 743 mmHg 74%
    04:00 -6°C° 0 mm 8 m/s 743 mmHg 69%
    05:00 -7°C° 0 mm 8 m/s 743 mmHg 63%
    06:00 -6°C° 0 mm 8 m/s 744 mmHg 63%
    07:00 -6°C° 0 mm 7 m/s 745 mmHg 63%
    08:00 -6°C° 0 mm 7 m/s 746 mmHg 63%
    09:00 -6°C° 0 mm 7 m/s 746 mmHg 62%
    10:00 -6°C° 0 mm 7 m/s 747 mmHg 61%
    11:00 -5°C° 0 mm 8 m/s 747 mmHg 60%
    12:00 -4°C° 0 mm 7 m/s 747 mmHg 59%
    13:00 -3°C° 0 mm 7 m/s 747 mmHg 57%
    14:00 -3°C° 0 mm 6 m/s 748 mmHg 56%
    15:00 -4°C° 0 mm 6 m/s 748 mmHg 62%
    16:00 -4°C° 0 mm 5 m/s 748 mmHg 68%
    17:00 -4°C° 0 mm 5 m/s 748 mmHg 74%
    18:00 -4°C° 0 mm 5 m/s 748 mmHg 76%
    19:00 -4°C° 0 mm 5 m/s 748 mmHg 78%
    20:00 -3°C° 0 mm 4 m/s 748 mmHg 79%
    21:00 -3°C° 0 mm 4 m/s 748 mmHg 82%
    22:00 -3°C° 0 mm 4 m/s 748 mmHg 84%
    23:00 -2°C° 0 mm 3 m/s 748 mmHg 87%

    Après-demain, 24 Janvier, Vendredi

    Heure Température Précipitation Vent Pression Humidité
    00:00 -3°C° 0 mm 4 m/s 748 mmHg 87%
    01:00 -3°C° 0 mm 4 m/s 748 mmHg 87%
    02:00 -4°C° 0 mm 5 m/s 747 mmHg 87%
    03:00 -4°C° 0 mm 5 m/s 747 mmHg 85%
    04:00 -4°C° 0 mm 6 m/s 746 mmHg 83%
    05:00 -4°C° 0 mm 6 m/s 745 mmHg 82%
    06:00 -3°C° 0.1 mm 6 m/s 745 mmHg 83%
    07:00 -3°C° 0.1 mm 7 m/s 744 mmHg 85%
    08:00 -3°C° 0.1 mm 7 m/s 744 mmHg 86%
    09:00 -2°C° 0.1 mm 7 m/s 744 mmHg 88%
    10:00 -2°C° 0.1 mm 7 m/s 744 mmHg 89%
    11:00 -1°C° 0.1 mm 7 m/s 744 mmHg 90%
    12:00 -1°C° 0 mm 7 m/s 744 mmHg 90%
    13:00 -1°C° 0 mm 7 m/s 743 mmHg 90%
    14:00 0°C° 0 mm 7 m/s 743 mmHg 91%
    15:00 0°C° 0 mm 7 m/s 743 mmHg 91%
    16:00 0°C° 0 mm 7 m/s 743 mmHg 91%
    17:00 +1°C° 0 mm 6 m/s 742 mmHg 90%
    18:00 +1°C° 0 mm 6 m/s 742 mmHg 90%
    19:00 +1°C° 0 mm 6 m/s 742 mmHg 90%
    20:00 -1°C° 0 mm 6 m/s 743 mmHg 90%
    21:00 -1°C° 0 mm 7 m/s 742 mmHg 90%
    22:00 -1°C° 0 mm 7 m/s 742 mmHg 90%
    23:00 -1°C° 0 mm 7 m/s 742 mmHg 91%

    25 Janvier, Samedi

    Heure Température Précipitation Vent Pression Humidité
    00:00 -1°C° 0 mm 6 m/s 742 mmHg 91%
    01:00 -1°C° 0 mm 6 m/s 742 mmHg 91%
    02:00 -1°C° 0 mm 6 m/s 741 mmHg 91%
    03:00 -1°C° 0.1 mm 6 m/s 741 mmHg 92%
    04:00 -2°C° 0.1 mm 6 m/s 741 mmHg 94%
    05:00 -1°C° 0.1 mm 5 m/s 741 mmHg 95%
    06:00 -1°C° 0.1 mm 5 m/s 741 mmHg 95%
    07:00 0°C° 0.1 mm 5 m/s 741 mmHg 95%
    08:00 0°C° 0.1 mm 5 m/s 741 mmHg 95%
    09:00 0°C° 0 mm 5 m/s 741 mmHg 94%
    10:00 -1°C° 0 mm 6 m/s 741 mmHg 93%
    11:00 +1°C° 0 mm 6 m/s 742 mmHg 93%
    12:00 +1°C° 0 mm 6 m/s 742 mmHg 90%
    13:00 +1°C° 0 mm 6 m/s 741 mmHg 87%
    14:00 +1°C° 0 mm 6 m/s 741 mmHg 84%
    15:00 +1°C° 0 mm 5 m/s 742 mmHg 84%
    16:00 0°C° 0 mm 5 m/s 742 mmHg 84%
    17:00 0°C° 0 mm 5 m/s 742 mmHg 84%
    18:00 -1°C° 0 mm 5 m/s 742 mmHg 84%
    19:00 -1°C° 0 mm 5 m/s 742 mmHg 84%
    20:00 -2°C° 0 mm 5 m/s 742 mmHg 84%
    21:00 -2°C° 0 mm 5 m/s 743 mmHg 85%
    22:00 -2°C° 0 mm 5 m/s 743 mmHg 86%
    23:00 -2°C° 0 mm 5 m/s 743 mmHg 86%

    26 Janvier, Dimanche

    Heure Température Précipitation Vent Pression Humidité
    00:00 -2°C° 0 mm 4 m/s 744 mmHg 87%
    01:00 -2°C° 0 mm 4 m/s 744 mmHg 87%
    02:00 -2°C° 0 mm 4 m/s 744 mmHg 88%
    03:00 -3°C° 0 mm 4 m/s 744 mmHg 89%
    04:00 -3°C° 0 mm 4 m/s 745 mmHg 90%
    05:00 -3°C° 0 mm 4 m/s 745 mmHg 91%
    06:00 -3°C° 0 mm 4 m/s 745 mmHg 92%
    07:00 -2°C° 0 mm 3 m/s 746 mmHg 93%
    08:00 -2°C° 0 mm 3 m/s 746 mmHg 94%
    09:00 -2°C° 0 mm 3 m/s 747 mmHg 91%
    10:00 -1°C° 0 mm 3 m/s 747 mmHg 88%
    11:00 0°C° 0 mm 3 m/s 747 mmHg 85%
    12:00 0°C° 0 mm 3 m/s 748 mmHg 84%
    13:00 0°C° 0 mm 3 m/s 748 mmHg 83%
    14:00 +1°C° 0 mm 3 m/s 748 mmHg 82%
    15:00 0°C° 0 mm 3 m/s 748 mmHg 85%
    16:00 -1°C° 0 mm 3 m/s 748 mmHg 88%
    17:00 -1°C° 0 mm 2 m/s 748 mmHg 91%
    18:00 -1°C° 0 mm 3 m/s 748 mmHg 89%
    19:00 -1°C° 0 mm 3 m/s 748 mmHg 87%
    20:00 -1°C° 0 mm 3 m/s 748 mmHg 85%
    21:00 -1°C° 0 mm 2 m/s 749 mmHg 84%
    22:00 -1°C° 0 mm 2 m/s 749 mmHg 83%
    23:00 -1°C° 0 mm 2 m/s 749 mmHg 83%

    27 Janvier, Lundi

    Heure Température Précipitation Vent Pression Humidité
    00:00 -1°C° 0 mm 2 m/s 749 mmHg 83%
    01:00 -1°C° 0 mm 3 m/s 748 mmHg 84%
    02:00 -1°C° 0 mm 3 m/s 748 mmHg 84%
    03:00 -1°C° 0 mm 3 m/s 748 mmHg 87%
    04:00 -1°C° 0 mm 3 m/s 748 mmHg 89%
    05:00 -2°C° 0 mm 4 m/s 748 mmHg 92%
    06:00 -1°C° 0 mm 4 m/s 748 mmHg 93%
    07:00 -1°C° 0 mm 4 m/s 748 mmHg 93%
    08:00 -1°C° 0 mm 4 m/s 747 mmHg 94%
    09:00 -1°C° 0 mm 4 m/s 747 mmHg 89%
    10:00 -1°C° 0 mm 5 m/s 747 mmHg 85%
    11:00 -1°C° 0 mm 5 m/s 747 mmHg 80%
    12:00 -1°C° 0 mm 5 m/s 747 mmHg 79%
    13:00 0°C° 0 mm 5 m/s 746 mmHg 79%
    14:00 0°C° 0 mm 5 m/s 746 mmHg 78%
    15:00 -1°C° 0 mm 5 m/s 746 mmHg 82%
    16:00 -1°C° 0 mm 5 m/s 745 mmHg 86%
    17:00 -1°C° 0 mm 4 m/s 745 mmHg 90%
    18:00 -1°C° 0 mm 4 m/s 745 mmHg 91%
    19:00 -1°C° 0 mm 4 m/s 745 mmHg 91%
    20:00 -1°C° 0 mm 4 m/s 745 mmHg 92%
    21:00 -1°C° 0 mm 4 m/s 745 mmHg 93%
    22:00 -2°C° 0 mm 4 m/s 745 mmHg 93%
    23:00 -2°C° 0 mm 4 m/s 745 mmHg 94%
    Voir plus